Location: ČR
(50.0000°N, 15.0000°E)
Time: 14:30:26
(UTC+01:00)

BlueWalker 3 - Pass Details

Date: 14 December 2023
Orbit: 486 x 500 km, 53.2° (Epoch: 22 February)

Event Time Altitude Azimuth Distance (km) Brightness Sun altitude
Rises 18:47:45 0° 212° (SSW) 2,598 6.1 -26.0°
Reaches altitude 10° 18:50:07 10° 201° (SSW) 1,719 4.9 -26.3°
Enters shadow 18:50:55 15° 194° (SSW) 1,454 4.4 -26.5°
